KD7KCN-5 Weather Reports


Display with metric or nautical units.
time (UTC)temp
F
wind
direction
speed
MPH
gust
MPH
rain 1hr
in
rain 24hr
in
rain mn
in
humidity
%
barometer
mb
20260904212535 77 146 29.0 40.0 0.00 0.00 0.00 27 1013.9
20260904211534 78 187 14.0 34.0 0.00 0.00 0.00 26 1014.1
20260904210534 77 183 22.0 35.0 0.00 0.00 0.00 25 1014.3
20260904205535 77 189 17.0 37.0 0.00 0.00 0.00 25 1014.3
20260904204535 77 155 26.0 42.0 0.00 0.00 0.00 27 1014.0
20260904203535 77 164 18.0 36.0 0.00 0.00 0.00 25 1014.2
20260904202535 77 215 16.0 44.0 0.00 0.00 0.00 24 1014.3
20260904201538 76 201 17.0 44.0 0.00 0.00 0.00 23 1014.6
20260904200537 77 122 20.0 44.0 0.00 0.00 0.00 24 1014.5
20260904195535 75 141 22.0 47.0 0.00 0.00 0.00 26 1014.3
20260904194535 75 136 22.0 36.0 0.00 0.00 0.00 25 1014.5
20260904193536 76 149 25.0 41.0 0.00 0.00 0.00 27 1014.6
20260904192536 75 134 14.0 39.0 0.00 0.00 0.00 28 1014.8
20260904191536 75 138 16.0 35.0 0.00 0.00 0.00 28 1014.8
20260904184536 75 147 24.0 36.0 0.00 0.00 0.00 29 1015.0
20260904182536 74 153 23.0 42.0 0.00 0.00 0.00 31 1015.2
20260904172535 74 128 25.0 41.0 0.00 0.00 0.00 22 1015.5
20260904171537 73 137 23.0 39.0 0.00 0.00 0.00 22 1015.5
20260904170536 73 123 24.0 39.0 0.00 0.00 0.00 20 1015.4
20260904155536 71 137 22.0 33.0 0.00 0.00 0.00 19 1015.1
20260904154535 71 128 19.0 28.0 0.00 0.00 0.00 19 1015.2
20260904153535 70 137 17.0 28.0 0.00 0.00 0.00 20 1015.3
20260904151535 69 138 23.0 32.0 0.00 0.00 0.00 20 1015.4
20260904145538 68 114 14.0 22.0 0.00 0.00 0.00 21 1015.3
20260904144536 68 116 13.0 22.0 0.00 0.00 0.00 21 1015.4
20260904143536 67 112 13.0 21.0 0.00 0.00 0.00 22 1015.3
20260904142537 66 121 14.0 21.0 0.00 0.00 0.00 22 1015.3
20260904141536 66 132 11.0 17.0 0.00 0.00 0.00 22 1015.2
20260904140535 66 115 8.0 15.0 0.00 0.00 0.00 22 1015.1
20260904135536 65 119 8.0 17.0 0.00 0.00 0.00 22 1015.0
20260904134537 65 114 13.0 18.0 0.00 0.00 0.00 22 1015.0
20260904133536 64 125 12.0 18.0 0.00 0.00 0.00 23 1014.9
20260904132536 64 127 10.0 22.0 0.00 0.00 0.00 23 1014.8
20260904131536 64 150 8.0 17.0 0.00 0.00 0.00 23 1014.7
20260904124536 64 178 11.0 17.0 0.00 0.00 0.00 23 1013.7
20260904123536 64 130 11.0 17.0 0.00 0.00 0.00 23 1013.4
20260904122537 64 131 11.0 21.0 0.00 0.00 0.00 22 1013.4
20260904121536 64 132 14.0 22.0 0.00 0.00 0.00 22 1013.6
20260904120536 64 194 8.0 19.0 0.00 0.00 0.00 22 1013.4
20260904114536 64 145 10.0 17.0 0.00 0.00 0.00 22 1013.6
20260904113536 64 141 7.0 15.0 0.00 0.00 0.00 21 1013.5
20260904112536 64 110 9.0 17.0 0.00 0.00 0.00 21 1013.5
20260904111536 64 128 9.0 17.0 0.00 0.00 0.00 21 1013.3
20260904110537 64 130 10.0 19.0 0.00 0.00 0.00 21 1013.2
20260904105539 65 115 11.0 22.0 0.00 0.00 0.00 20 1013.2
20260904104536 66 160 9.0 17.0 0.00 0.00 0.00 20 1013.2
20260904103536 66 154 19.0 25.0 0.00 0.00 0.00 20 1012.9
20260904102536 66 184 14.0 27.0 0.00 0.00 0.00 20 1013.0
20260904101536 67 136 11.0 22.0 0.00 0.00 0.00 19 1012.8
20260904100536 67 154 16.0 29.0 0.00 0.00 0.00 19 1012.7
20260904095537 67 155 14.0 23.0 0.00 0.00 0.00 19 1012.5
20260904094536 67 146 18.0 31.0 0.00 0.00 0.00 18 1012.5
20260904093539 67 196 14.0 32.0 0.00 0.00 0.00 18 1012.4
20260904092536 67 148 12.0 20.0 0.00 0.00 0.00 18 1012.5
20260904091536 67 166 16.0 26.0 0.00 0.00 0.00 18 1012.3
20260904090536 67 156 15.0 27.0 0.00 0.00 0.00 19 1013.1
20260904084536 66 193 17.0 28.0 0.00 0.00 0.00 20 1013.0
20260904083536 66 127 12.0 17.0 0.00 0.00 0.00 20 1013.2
20260904082628 66 126 9.0 16.0 0.00 0.00 0.00 1013.3
20260904082537 66 126 9.0 16.0 0.00 0.00 0.00 1013.3
20260904081538 66 130 9.0 14.0 0.00 0.00 0.00 21 1013.4
20260904080536 66 130 9.0 13.0 0.00 0.00 0.00 21 1013.6
20260904075536 66 140 7.0 15.0 0.00 0.00 0.00 20 1013.5
20260904074536 66 126 9.0 14.0 0.00 0.00 0.00 21 1013.5
20260904073537 67 119 8.0 14.0 0.00 0.00 0.00 20 1013.6
20260904072537 67 133 8.0 18.0 0.00 0.00 0.00 20 1013.5
20260904071538 68 143 11.0 19.0 0.00 0.00 0.00 20 1013.4
20260904070537 68 153 14.0 21.0 0.00 0.00 0.00 20 1013.3
20260904065538 69 147 15.0 24.0 0.00 0.00 0.00 20 1013.2
20260904064536 69 145 11.0 30.0 0.00 0.00 0.00 19 1013.2
20260904063537 69 197 19.0 33.0 0.00 0.00 0.00 19 1013.0
20260904062536 69 190 21.0 29.0 0.00 0.00 0.00 19 1013.0
20260904061537 69 141 17.0 26.0 0.00 0.00 0.00 20 1013.0
20260904060537 70 204 23.0 33.0 0.00 0.00 0.00 20 1012.8
20260904055536 70 185 18.0 34.0 0.00 0.00 0.00 20 1013.0
20260904054537 69 165 16.0 27.0 0.00 0.00 0.00 21 1013.1
20260904053537 70 177 14.0 35.0 0.00 0.00 0.00 21 1013.1
20260904052538 70 175 20.0 38.0 0.00 0.00 0.00 21 1013.2
20260904051537 70 189 16.0 27.0 0.00 0.00 0.00 21 1013.1
20260904050538 70 195 15.0 27.0 0.00 0.00 0.00 21 1013.4
20260904045537 70 156 11.0 25.0 0.00 0.00 0.00 20 1013.4
20260904044537 70 164 18.0 26.0 0.00 0.00 0.00 19 1013.4
20260904043538 70 169 15.0 26.0 0.00 0.00 0.00 19 1013.5
20260904042539 70 184 12.0 29.0 0.00 0.00 0.00 18 1013.5
20260904041537 70 174 10.0 20.0 0.00 0.00 0.00 18 1013.3
20260904040537 71 197 10.0 19.0 0.00 0.00 0.00 18 1013.3
20260904035537 71 174 7.0 17.0 0.00 0.00 0.00 18 1013.3
20260904034537 71 132 9.0 23.0 0.00 0.00 0.00 17 1013.1
20260904033541 71 135 13.0 26.0 0.00 0.00 0.00 17 1012.9
20260904032539 72 139 17.0 31.0 0.00 0.00 0.00 17 1012.8
20260904031539 72 158 15.0 25.0 0.00 0.00 0.00 17 1012.7
20260904030537 72 146 9.0 28.0 0.00 0.00 0.00 17 1012.8
20260904025537 72 166 12.0 24.0 0.00 0.00 0.00 17 1012.8
20260904024537 72 184 10.0 23.0 0.00 0.00 0.00 17 1012.6
20260904023538 72 148 13.0 25.0 0.00 0.00 0.00 17 1012.6
20260904022538 72 153 15.0 26.0 0.00 0.00 0.00 17 1012.6
20260904021537 73 159 13.0 24.0 0.00 0.00 0.00 17 1012.5
20260904020539 73 152 16.0 28.0 0.00 0.00 0.00 17 1012.2
20260904015537 73 192 20.0 29.0 0.00 0.00 0.00 16 1012.2
20260904014537 73 141 10.0 28.0 0.00 0.00 0.00 15 1012.1
20260904013538 74 162 13.0 21.0 0.00 0.00 0.00 14 1012.1
20260904012537 74 152 13.0 22.0 0.00 0.00 0.00 14 1012.0
20260904011537 74 140 15.0 28.0 0.00 0.00 0.00 12 1012.1
20260904010537 75 221 22.0 38.0 0.00 0.00 0.00 12 1012.1
20260904005538 76 159 27.0 39.0 0.00 0.00 0.00 11 1011.9
20260904004539 76 152 24.0 38.0 0.00 0.00 0.00 13 1012.2
20260904003538 76 130 17.0 41.0 0.00 0.00 0.00 13 1012.2
20260904002539 76 167 19.0 33.0 0.00 0.00 0.00 14 1012.2
20260904001537 76 136 18.0 32.0 0.00 0.00 0.00 14 1012.2
20260904000537 77 148 20.0 36.0 0.00 0.00 0.00 14 1012.3
20260903234537 77 156 14.0 37.0 0.00 0.00 0.00 15 1012.2
20260903233537 77 128 25.0 37.0 0.00 0.00 0.00 15 1012.2
20260903232537 78 182 15.0 42.0 0.00 0.00 0.00 15 1012.5
20260903231539 77 193 16.0 35.0 0.00 0.00 0.00 15 1012.4
20260903230538 77 143 20.0 38.0 0.00 0.00 0.00 15 1012.3
20260903225538 77 157 18.0 37.0 0.00 0.00 0.00 15 1012.5
20260903224537 78 185 15.0 30.0 0.00 0.00 0.00 16 1012.7
20260903223537 78 129 19.0 35.0 0.00 0.00 0.00 15 1012.6
20260903222539 78 137 25.0 40.0 0.00 0.00 0.00 15 1012.7
20260903221538 78 144 21.0 36.0 0.00 0.00 0.00 15 1013.1
20260903220538 78 167 15.0 35.0 0.00 0.00 0.00 15 1013.2
20260903215538 78 124 18.0 39.0 0.00 0.00 0.00 15 1013.1
20260903214538 76 154 15.0 43.0 0.00 0.00 0.00 15 1013.6